Regional Weather Roundup
Issued by NWS Midland/Odessa, TX

Skip options and go directly to product.
Home | Oldest Version | Next Version | Current Version | All | Text Only | Save Text | Print | Product List | Glossary On

Skip product version selection by date and time.   
897
ASUS44 KMAF 031210
RWRMAF
MIDLAND AREA WEATHER ROUNDUP
NATIONAL WEATHER SERVICE MIDLAND TX
700 AM CDT FRI JUL 03 2015

...IN SOUTHWEST TEXAS AND SOUTHEAST NEW MEXICO...

CITY           SKY/WX    TMP DP  RH WIND       PRES   REMARKS
ALPINE         MOCLDY    63  59  87 SW3       30.12R
ANDREWS        FAIR      68  63  83 E3        30.05R
ARTESIA        MOCLDY    73  63  68 S5        30.06R
BIG SPRING     CLOUDY    74  67  78 S8        30.05R
CARLSBAD       CLOUDY    73  63  70 CALM      30.03R
DRYDEN           N/A     73  67  81 W3        29.96R
FORT STOCKTON  PTCLDY    69  65  86 SE8       29.99R
GUAD PASS      CLOUDY    68  59  73 NE5       30.17R
HOBBS          CLEAR     68  63  83 CALM      30.07S
MARFA          PTCLDY   N/A N/A N/A NW3       30.11R
MIDLAND AIRPK  MOCLDY    72  66  81 SE6       30.04R
MIDLAND INTL   MOCLDY    70  66  87 SE6       30.03R
ODESSA         PTCLDY    70  65  84 SE7       30.03R
PECOS          MOCLDY    72  64  76 NE8       29.99R
PRESIDIO       NOT AVBL
SEMINOLE       MOCLDY    68  62  80 CALM      30.08R
SNYDER         CLOUDY    72  67  86 S5        30.04R
WINK           CLOUDY    73  64  73 E8        30.00R
$$
...OTHER STATIONS IN TEXAS...

CITY           SKY/WX    TMP DP  RH WIND       PRES   REMARKS
ABILENE        CLOUDY    74  67  78 S9        30.01R
AMARILLO       CLOUDY    66  63  90 N7        30.09R
AUSTIN         MOCLDY    74  74 100 S3        30.00R FOG
BROWNSVILLE    MOCLDY    75  74  96 E5        29.95S FOG
CORPUS CHRISTI PTCLDY    76  74  93 SE7       29.97R
DALLAS FTW     CLOUDY    79  72  79 SW14      29.95R
DEL RIO        CLEAR     73  70  90 E6        29.94R
EL PASO        CLOUDY    76  59  55 N8        30.05F
HOUSTON INT    PTCLDY    75  75 100 S3        29.99F
LUBBOCK        CLOUDY    70  64  81 SW6       30.06R
SAN ANGELO     CLOUDY    71  67  87 S5        30.00R
SAN ANTONIO    CLOUDY    77  73  87 S10       29.99S
WACO           CLOUDY    77  73  87 S8        29.98R
WICHITA FALLS  NOT AVBL
$$
...OTHER LOCATIONS IN NEW MEXICO...

CITY           SKY/WX    TMP DP  RH WIND       PRES   REMARKS
ALAMAGORDO     MOCLDY    72  59  64 SE7       30.10F
ALBUQUERQUE    CLOUDY    71  54  54 E13       30.17R
CANNON AFB     CLOUDY    67  64  89 NE13      30.14R
CLOVIS         CLOUDY    66  63  88 N12         N/A
HOLLOMAN AFB   MOCLDY    70  65  84 NE5       30.08R
ROSWELL        PTCLDY    71  61  70 W6        30.05R
RUIDOSO        MOCLDY    57  54  88 W7        30.29R
SANTA FE       PTCLDY    58  56  93 N6        30.25R
TRUTH OR CONSE CLOUDY    69  65  86 SE7       30.13R
TUCUMCARI      LGT RAIN  66  64  93 NE9       30.14R
$$

USA.gov is the U.S. government's official web portal to all federal, state and local government web resources and services.